Location: Marsån
(66.4167°N, 22.2833°E)
Time: 10:42:39
(UTC+00:00)

Cosmos 1553 Rocket - Pass Details

Date: 24 February 2024
Orbit: 942 x 1007 km, 82.9° (Epoch: 15 April)

Event Time Altitude Azimuth Distance (km) Brightness Sun altitude
Exits shadow 21:16:07 62° 43° (NE) 1,086 4.2 -31.0°
Drops below altitude 10° 21:21:21 10° 18° (NNE) 2,736 6.9 -31.3°
Sets 21:23:53 0° 17° (NNE) 3,696 7.7 -31.4°
